FW1310 Weather Reports


time (UTC)temp
F
wind
direction
speed
knots
gust
knots
rain 1hr
in
rain 24hr
in
rain mn
in
humidity
%
barometer
mb
20260504050005 65 239 1.7 4.3 0.00 0.00 0.00 62 1002.5
20260504045504 65 262 1.7 5.2 0.00 0.00 0.00 61 1002.6
20260504045004 65 253 0.9 2.6 0.00 0.00 0.00 60 1002.5
20260504044504 64 253 1.7 2.6 0.00 0.00 0.00 60 1002.6
20260504043004 65 276 0.0 1.7 0.00 0.00 0.00 58 1002.8
20260504042504 65 268 0.0 2.6 0.00 0.00 0.00 58 1002.7
20260504040504 65 248 0.9 1.7 0.00 0.00 0.00 55 1002.8
20260504040004 65 254 0.0 0.9 0.00 0.00 0.00 56 1002.7
20260504035004 65 267 0.0 0.0 0.00 0.00 0.00 56 1002.7
20260504034505 65 265 0.0 0.0 0.00 0.00 0.00 56 1002.7
20260504034005 65 257 0.0 0.0 0.00 0.00 0.00 55 1002.8
20260504033004 66 262 0.0 0.0 0.00 0.00 0.00 54 1002.9
20260504032504 66 262 0.0 0.0 0.00 0.00 0.00 55 1002.8
20260504032004 66 246 0.0 0.0 0.00 0.00 0.00 54 1002.6
20260504031504 66 258 0.0 0.0 0.00 0.00 0.00 54 1002.8
20260504030504 67 273 0.0 0.9 0.00 0.00 0.00 53 1002.6
20260504030004 67 284 0.0 0.9 0.00 0.00 0.00 52 1002.8
20260504025504 67 334 0.0 1.7 0.00 0.00 0.00 52 1002.8
20260504025005 67 300 0.0 1.7 0.00 0.00 0.00 52 1002.8
20260504024004 67 257 0.0 0.0 0.00 0.00 0.00 52 1002.9
20260504023504 67 260 0.0 0.0 0.00 0.00 0.00 51 1002.9
20260504023005 68 250 0.0 0.9 0.00 0.00 0.00 51 1002.9
20260504022004 68 238 0.0 0.0 0.00 0.00 0.00 51 1002.7
20260504021504 68 262 0.0 0.0 0.00 0.00 0.00 50 1002.8
20260504021004 68 257 0.0 0.0 0.00 0.00 0.00 50 1002.8
20260504020004 69 262 0.0 0.0 0.00 0.00 0.00 48 1002.6
20260504015504 69 242 0.0 0.0 0.00 0.00 0.00 48 1002.6
20260504015005 70 241 0.0 0.0 0.00 0.00 0.00 46 1002.4
20260504014005 70 254 0.9 1.7 0.00 0.00 0.00 45 1002.4
20260504013005 70 230 0.9 2.6 0.00 0.00 0.00 44 1002.1
20260504010504 71 275 0.9 1.7 0.00 0.00 0.00 43 1002.3
20260504010004 72 255 0.9 2.6 0.00 0.00 0.00 43 1002.2
20260504004504 73 232 0.9 5.2 0.00 0.00 0.00 41 1002.2
20260504004004 73 275 1.7 5.2 0.00 0.00 0.00 41 1002.2
20260504003504 73 290 1.7 4.3 0.00 0.00 0.00 40 1002.2
20260504003004 74 189 0.9 4.3 0.00 0.00 0.00 42 1002.4
20260504002504 74 331 0.9 5.2 0.00 0.00 0.00 41 1002.4
20260504002004 74 289 2.6 5.2 0.00 0.00 0.00 40 1002.4
20260504001505 74 258 1.7 5.2 0.00 0.00 0.00 40 1002.4
20260504001005 74 293 0.9 5.2 0.00 0.00 0.00 40 1002.5
20260504000505 74 267 0.9 2.6 0.00 0.00 0.00 40 1002.6
20260503235504 75 259 1.7 5.2 0.00 0.00 0.00 39 1002.8
20260503235004 75 302 1.7 2.6 0.00 0.00 0.00 38 1002.7
20260503234504 76 263 2.6 8.7 0.00 0.00 0.00 38 1002.6
20260503233505 76 234 2.6 7.0 0.00 0.00 0.00 38 1002.9
20260503233005 76 253 3.5 7.0 0.00 0.00 0.00 37 1002.8
20260503232505 76 232 2.6 4.3 0.00 0.00 0.00 38 1002.8
20260503231005 76 240 3.5 6.1 0.00 0.00 0.00 35 1002.8
20260503230505 77 258 2.6 4.3 0.00 0.00 0.00 35 1002.5
20260503230004 77 284 2.6 4.3 0.00 0.00 0.00 35 1002.7
20260503225505 78 251 2.6 6.1 0.00 0.00 0.00 35 1002.8
20260503225005 78 214 3.5 6.1 0.00 0.00 0.00 34 1002.8
20260503224504 79 222 4.3 6.1 0.00 0.00 0.00 33 1002.8
20260503224005 79 266 2.6 6.1 0.00 0.00 0.00 34 1003.0
20260503223504 78 238 3.5 6.1 0.00 0.00 0.00 33 1003.1
20260503222505 79 243 3.5 10.4 0.00 0.00 0.00 34 1003.2
20260503221504 78 247 1.7 5.2 0.00 0.00 0.00 34 1003.2
20260503221004 78 282 4.3 8.7 0.00 0.00 0.00 33 1003.4
20260503220504 79 245 6.1 8.7 0.00 0.00 0.00 33 1003.3
20260503220004 79 248 2.6 7.8 0.00 0.00 0.00 34 1003.5
20260503215504 79 256 1.7 7.0 0.00 0.00 0.00 34 1003.5
20260503215004 79 288 3.5 7.0 0.00 0.00 0.00 35 1003.5
20260503214504 78 284 2.6 5.2 0.00 0.00 0.00 32 1003.7
20260503214004 79 276 1.7 8.7 0.00 0.00 0.00 33 1003.8
20260503212504 79 260 2.6 6.1 0.00 0.00 0.00 33 1004.1
20260503211504 78 238 2.6 10.4 0.00 0.00 0.00 32 1004.2
20260503211005 78 279 3.5 8.7 0.00 0.00 0.00 33 1004.2
20260503210505 78 229 2.6 7.8 0.00 0.00 0.00 33 1004.3
20260503205505 79 267 4.3 7.0 0.00 0.00 0.00 33 1004.5
20260503205004 79 251 4.3 6.1 0.00 0.00 0.00 33 1004.6
20260503204504 79 268 2.6 8.7 0.00 0.00 0.00 34 1004.7
20260503204005 79 286 5.2 10.4 0.00 0.00 0.00 32 1004.7
20260503203504 79 289 1.7 7.8 0.00 0.00 0.00 34 1004.8
20260503203004 79 244 3.5 7.0 0.00 0.00 0.00 36 1004.8
20260503202504 78 254 4.3 6.1 0.00 0.00 0.00 33 1004.9
20260503202005 80 289 3.5 6.1 0.00 0.00 0.00 32 1005.2
20260503201504 80 358 1.7 7.8 0.00 0.00 0.00 34 1005.3
20260503201005 80 307 2.6 11.3 0.00 0.00 0.00 34 1005.2
20260503200505 79 247 5.2 11.3 0.00 0.00 0.00 32 1005.3
20260503200005 79 285 2.6 7.0 0.00 0.00 0.00 33 1005.3
20260503195005 79 236 2.6 7.8 0.00 0.00 0.00 32 1005.5
20260503194504 79 230 3.5 6.1 0.00 0.00 0.00 31 1005.6
20260503194004 79 277 0.9 7.0 0.00 0.00 0.00 29 1005.6
20260503193504 79 274 4.3 7.0 0.00 0.00 0.00 29 1005.6
20260503193004 79 304 3.5 5.2 0.00 0.00 0.00 31 1005.7
20260503192504 79 55 2.6 7.0 0.00 0.00 0.00 30 1005.9
20260503192004 78 3 1.7 5.2 0.00 0.00 0.00 33 1005.8
20260503191504 79 284 4.3 10.4 0.00 0.00 0.00 32 1005.9
20260503191004 79 222 2.6 6.1 0.00 0.00 0.00 33 1006.0
20260503190504 78 267 2.6 7.0 0.00 0.00 0.00 33 1006.0
20260503190004 78 280 1.7 7.0 0.00 0.00 0.00 33 1006.1
20260503185505 78 289 4.3 6.1 0.00 0.00 0.00 32 1006.2
20260503185004 78 253 2.6 6.1 0.00 0.00 0.00 33 1006.3
20260503184504 79 274 2.6 8.7 0.00 0.00 0.00 35 1006.3
20260503183004 78 286 4.3 7.0 0.00 0.00 0.00 34 1006.4
20260503182504 78 260 1.7 4.3 0.00 0.00 0.00 35 1006.6
20260503182006 78 289 1.7 6.1 0.00 0.00 0.00 33 1006.8
20260503181505 78 263 3.5 7.0 0.00 0.00 0.00 33 1006.9
20260503181004 78 241 1.7 7.8 0.00 0.00 0.00 34 1006.9
20260503180004 78 285 4.3 6.1 0.00 0.00 0.00 34 1007.0
20260503175005 77 223 3.5 7.0 0.00 0.00 0.00 36 1007.2
20260503174504 77 292 2.6 6.1 0.00 0.00 0.00 39 1007.2
20260503174004 78 269 1.7 6.1 0.00 0.00 0.00 39 1007.4
20260503173505 77 310 1.7 4.3 0.00 0.00 0.00 40 1007.5
20260503173005 77 312 1.7 6.1 0.00 0.00 0.00 40 1007.4
20260503172504 77 304 2.6 6.1 0.00 0.00 0.00 39 1007.6
20260503172004 77 289 1.7 4.3 0.00 0.00 0.00 38 1007.7
20260503171504 77 270 0.9 6.1 0.00 0.00 0.00 41 1007.8
20260503170504 76 331 0.9 4.3 0.00 0.00 0.00 41 1007.8
20260503151005 72 1 1.7 4.3 0.00 0.00 0.00 48 1008.3
20260503150505 72 282 1.7 4.3 0.00 0.00 0.00 49 1008.1
20260503131004 60 25 0.0 1.7 0.00 0.00 0.00 69 1007.9